Temp
16 16 16 14 15 15 15 15 16 17 16 15 15 15 15 13 14 14 14 13 12 12 12 12 13 14 14 14 13 13 13 14 13 13 13 12 12 11 11 11 11 11 11 11
16 16 16 15 15 15 17 17 18 18 17 15 15 15 16 15 16 15 15 15 14 13 15 12 13 13 14 14 14 13 13 13 13 13 13 12 11 11 11 11 11 10 11 11
16 17 17 16 16 17 17 18 19 19 17 17 17 17 14 16 16 16 15 15 14 15 15 13 13 13 15 14 14 14 13 13 13 13 12 12 11 11 10 9 9 10 9 9
17 17 17 18 18 18 18 19 19 19 19 19 18 17 17 17 17 16 16 16 15 15 14 13 13 14 15 15 14 13 12 13 12 12 12 12 11 11 10 10 8 8 8 7
16 17 18 18 18 18 19 19 19 19 18 18 17 18 18 17 17 17 17 17 16 15 14 14 14 14 14 13 15 14 13 11 12 11 12 11 11 11 10 9 7 8 7 8
16 17 17 18 19 19 19 19 19 18 17 14 18 18 18 17 17 18 18 17 17 17 16 14 14 14 13 13 12 12 12 12 11 11 10 10 10 9 9 8 7 7 7 8
17 18 18 18 19 19 19 19 19 14 15 13 20 18 18 18 18 17 16 16 16 15 16 16 14 13 11 11 11 11 10 12 11 11 9 11 10 10 9 9 8 8 8 7
17 18 19 18 19 19 19 19 19 16 15 18 21 19 18 18 17 17 17 16 16 15 15 15 14 13 12 11 12 12 14 11 11 11 10 11 11 10 10 10 9 7 7 6
17 18 19 19 19 19 19 19 19 19 20 20 20 19 18 17 17 17 17 16 16 15 15 15 15 14 14 13 12 13 12 12 11 11 10 10 11 12 10 11 8 8 7 7
18 17 20 19 20 20 19 19 19 20 16 17 20 19 18 18 18 18 17 16 16 16 15 15 15 14 13 13 12 12 12 11 11 10 10 10 10 11 10 10 9 7 8 7
19 19 19 20 20 20 19 19 20 19 20 17 15 19 19 19 18 17 17 17 16 15 15 14 13 13 13 12 11 11 11 11 10 10 10 10 10 10 9 10 9 9 9 9
18 18 19 19 20 20 20 20 19 19 19 20 20 19 19 18 18 17 17 16 16 15 14 14 13 13 13 13 12 11 9 10 10 10 10 10 10 9 9 9 9 9 9 8
18 18 18 18 19 20 19 19 19 19 19 19 18 19 19 18 17 16 15 15 14 13 13 13 13 12 12 12 12 12 10 10 10 9 10 9 8 8 9 9 8 9 9 8
17 17 17 17 17 18 18 18 19 19 19 19 19 19 19 18 17 16 15 14 13 13 13 12 12 11 11 11 11 11 10 10 10 10 10 10 9 10 9 8 8 8 8 8
17 17 17 17 17 17 18 18 18 18 18 18 19 18 16 16 16 16 15 14 13 12 12 11 11 11 11 10 11 11 10 10 10 10 10 10 9 8 8 7 7 8 8 8
17 17 17 17 17 17 17 17 18 18 18 18 18 16 15 15 15 15 15 15 13 12 11 11 11 10 10 10 10 10 10 10 10 10 10 9 8 8 7 7 6 7 7 8
17 17 17 17 17 16 16 17 17 17 18 18 17 16 15 15 14 14 14 14 13 11 11 10 9 10 10 10 10 10 10 10 10 10 9 9 8 8 6 5 7 8 8 8
16 17 17 17 17 14 16 17 17 17 18 17 16 16 15 15 14 14 13 12 11 10 10 10 9 9 9 9 9 9 9 9 9 9 9 9 8 7 7 7 7 8 8 8
17 17 17 17 16 16 16 17 16 16 16 16 15 15 14 13 13 12 12 11 10 9 8 8 8 8 8 8 8 9 9 9 9 9 8 8 8 7 7 7 7 7 8 7
17 17 17 16 16 14 16 16 16 15 15 14 15 14 13 13 12 12 10 10 10 10 8 8 8 8 8 7 8 8 8 9 9 8 8 8 8 8 7 7 7 7 7 7
16 16 17 16 16 16 16 15 15 15 14 13 12 12 11 11 11 10 10 9 9 8 8 8 8 8 8 7 7 7 8 8 8 8 8 8 7 7 7 7 8 7 7 7
15 16 16 16 16 15 15 15 14 13 13 12 11 11 11 11 11 10 9 8 8 8 8 7 8 8 7 7 7 7 7 7 7 7 7 7 7 7 7 7 7 7 7 7
15 14 14 15 15 15 14 14 13 13 12 12 11 11 10 10 10 9 9 8 8 8 7 7 7 7 7 7 7 7 7 7 7 7 7 7 7 8 8 7 7 7 7 7
14 14 14 14 14 14 13 13 12 12 12 11 11 11 10 10 10 9 8 8 8 8 7 7 7 7 7 8 7 7 7 7 7 7 7 7 7 8 7 7 7 7 7 7
12 12 13 13 13 13 13 12 12 12 11 11 10 10 10 10 9 8 8 8 7 8 7 7 7 7 7 7 7 7 7 7 7 7 7 7 7 7 7 7 6 6 6 6
10 11 11 12 12 12 12 11 11 11 11 10 10 10 9 8 8 8 8 7 7 7 7 7 7 6 7 7 7 7 7 7 7 7 6 6 7 7 6 6 6 6 5 6
Height
3186 3185 3183 3188 3186 3184 3179 3182 3180 3181 3180 3184 3180 3180 3178 3183 3186 3188 3185 3187 3187 3192 3192 3190 3189 3187 3187 3187 3187 3188 3187 3187 3188 3189 3190 3191 3193 3195 3198 3199 3201 3204 3205 3207
3185 3181 3183 3187 3183 3184 3182 3181 3182 3179 3180 3181 3179 3177 3177 3179 3179 3180 3175 3181 3184 3188 3187 3186 3186 3187 3186 3186 3187 3185 3183 3184 3185 3187 3188 3190 3192 3194 3197 3198 3199 3200 3202 3205
3182 3182 3181 3183 3184 3184 3184 3184 3181 3179 3176 3177 3177 3179 3176 3179 3178 3177 3179 3182 3183 3184 3184 3180 3182 3183 3183 3182 3185 3184 3183 3182 3184 3185 3186 3187 3188 3189 3191 3194 3196 3197 3199 3202
3184 3183 3182 3182 3185 3186 3185 3183 3182 3180 3179 3177 3176 3181 3178 3178 3181 3182 3177 3180 3175 3181 3182 3179 3179 3179 3178 3180 3182 3184 3185 3185 3183 3183 3183 3184 3185 3186 3189 3191 3193 3196 3196 3196
3184 3183 3183 3183 3184 3184 3183 3181 3181 3178 3176 3178 3176 3178 3179 3179 3179 3180 3181 3184 3185 3183 3180 3180 3180 3181 3177 3176 3177 3180 3184 3181 3183 3181 3181 3181 3182 3182 3183 3186 3188 3190 3192 3193
3182 3182 3182 3181 3183 3181 3180 3178 3176 3178 3183 3178 3172 3172 3175 3177 3175 3175 3177 3180 3183 3183 3179 3177 3177 3177 3178 3177 3181 3182 3178 3179 3178 3179 3179 3178 3176 3174 3176 3179 3182 3185 3186 3186
3182 3180 3181 3181 3182 3180 3178 3175 3175 3188 3178 3173 3167 3172 3170 3173 3173 3174 3173 3172 3175 3175 3176 3171 3170 3171 3170 3169 3170 3173 3173 3172 3174 3176 3172 3172 3169 3169 3171 3174 3172 3175 3175 3179
3182 3179 3178 3179 3180 3180 3178 3177 3176 3178 3175 3167 3166 3169 3170 3172 3172 3171 3171 3170 3171 3171 3172 3170 3170 3169 3168 3170 3170 3166 3166 3165 3168 3168 3164 3164 3162 3164 3167 3162 3160 3160 3162 3165
3181 3178 3178 3177 3179 3180 3177 3176 3175 3172 3168 3167 3169 3172 3174 3173 3173 3172 3171 3170 3169 3168 3167 3167 3169 3167 3168 3167 3166 3160 3158 3161 3158 3158 3155 3152 3156 3156 3161 3159 3157 3157 3160 3156
3180 3179 3177 3179 3178 3175 3176 3177 3175 3173 3173 3173 3169 3172 3173 3173 3172 3171 3169 3167 3166 3165 3164 3162 3162 3161 3157 3156 3156 3154 3153 3152 3151 3151 3148 3148 3149 3152 3156 3154 3154 3155 3154 3151
3181 3181 3177 3176 3176 3174 3175 3176 3176 3177 3176 3175 3176 3175 3172 3171 3169 3168 3165 3164 3162 3161 3161 3162 3160 3160 3157 3148 3145 3143 3144 3144 3144 3143 3144 3141 3142 3146 3149 3148 3151 3153 3151 3147
3181 3180 3178 3175 3173 3175 3174 3173 3175 3176 3175 3173 3173 3175 3172 3170 3168 3165 3163 3161 3159 3157 3157 3156 3155 3154 3152 3150 3145 3138 3136 3137 3136 3135 3133 3131 3133 3135 3140 3142 3145 3146 3145 3144
3179 3178 3176 3173 3172 3169 3171 3174 3173 3173 3173 3173 3173 3174 3173 3168 3164 3161 3158 3156 3154 3152 3151 3150 3150 3148 3145 3143 3140 3135 3131 3129 3129 3129 3129 3126 3122 3116 3132 3137 3138 3140 3141 3140
3174 3175 3176 3177 3174 3174 3172 3170 3169 3169 3169 3169 3169 3168 3168 3161 3160 3157 3154 3152 3149 3148 3147 3145 3145 3141 3138 3136 3133 3128 3125 3123 3123 3123 3125 3124 3124 3122 3128 3129 3132 3134 3137 3136
3172 3172 3173 3173 3172 3172 3170 3169 3168 3167 3166 3165 3165 3163 3156 3155 3154 3154 3153 3152 3150 3145 3142 3140 3139 3136 3132 3131 3129 3124 3119 3118 3118 3118 3117 3116 3117 3118 3118 3122 3120 3130 3132 3132
3170 3169 3169 3169 3169 3168 3164 3163 3162 3162 3160 3158 3158 3155 3153 3151 3150 3149 3148 3147 3146 3143 3139 3137 3135 3133 3130 3126 3124 3119 3115 3113 3112 3112 3112 3112 3112 3114 3114 3113 3111 3123 3126 3126
3167 3167 3166 3164 3165 3164 3162 3160 3159 3158 3157 3153 3152 3152 3149 3147 3144 3143 3142 3142 3142 3139 3135 3132 3129 3126 3125 3122 3120 3117 3112 3110 3108 3107 3107 3108 3108 3107 3103 3088 3111 3118 3119 3120
3163 3163 3163 3160 3161 3159 3158 3157 3155 3153 3151 3146 3146 3145 3143 3142 3141 3140 3139 3138 3136 3134 3132 3127 3123 3120 3117 3116 3115 3114 3110 3107 3107 3105 3104 3104 3102 3105 3107 3110 3112 3114 3114 3114
3158 3158 3157 3156 3155 3153 3153 3152 3150 3147 3147 3142 3141 3140 3138 3138 3138 3135 3133 3132 3129 3125 3122 3120 3117 3114 3111 3110 3110 3108 3107 3104 3103 3101 3100 3100 3100 3100 3102 3106 3109 3110 3108 3109
3154 3153 3152 3150 3149 3147 3148 3147 3145 3142 3141 3137 3135 3134 3133 3133 3132 3131 3128 3126 3125 3120 3116 3113 3111 3108 3105 3104 3103 3101 3100 3100 3099 3098 3097 3097 3098 3097 3098 3100 3102 3103 3104 3105
3150 3150 3148 3145 3143 3140 3140 3138 3137 3137 3138 3132 3130 3129 3128 3128 3127 3124 3121 3119 3116 3113 3110 3109 3105 3104 3104 3100 3095 3094 3095 3095 3095 3094 3094 3094 3094 3094 3095 3096 3098 3099 3102 3103
3147 3146 3144 3141 3139 3137 3134 3134 3134 3132 3129 3128 3126 3124 3124 3123 3121 3118 3115 3113 3111 3108 3105 3102 3101 3100 3095 3100 3091 3091 3090 3090 3091 3092 3093 3093 3094 3094 3094 3094 3096 3097 3099 3100
3142 3143 3141 3141 3137 3134 3131 3129 3126 3125 3124 3123 3121 3119 3117 3116 3113 3111 3109 3107 3105 3103 3099 3096 3094 3092 3085 3091 3086 3086 3086 3086 3088 3089 3090 3091 3091 3091 3090 3091 3092 3094 3094 3096
3135 3135 3131 3131 3130 3128 3126 3124 3121 3119 3117 3116 3115 3113 3112 3110 3108 3105 3102 3100 3098 3097 3094 3092 3089 3088 3085 3085 3083 3084 3085 3084 3085 3086 3086 3087 3087 3087 3086 3087 3089 3090 3091 3092
3131 3130 3127 3124 3124 3121 3119 3116 3114 3112 3110 3109 3107 3106 3104 3103 3101 3098 3095 3093 3091 3091 3087 3085 3085 3082 3080 3080 3079 3079 3080 3081 3082 3083 3083 3084 3084 3084 3084 3084 3084 3086 3087 3088
3124 3123 3122 3118 3118 3115 3111 3110 3108 3107 3105 3103 3101 3098 3097 3095 3093 3092 3090 3087 3085 3084 3083 3078 3078 3076 3076 3075 3074 3075 3076 3077 3079 3079 3080 3081 3081 3080 3080 3080 3081 3082 3082 3083
Wind_Speed
12 7 4 7 4 15 4 2 11 15 13 4 1 1 5 7 8 11 24 26 20 15 14 16 11 10 11 10 11 11 13 12 12 14 17 20 22 21 23 22 20 20 22 21
13 3 6 8 11 5 7 1 9 7 1 6 7 10 8 12 11 3 7 18 17 11 9 25 22 17 17 13 9 11 11 13 10 13 14 17 19 21 22 20 21 22 23 22
3 3 3 7 13 2 4 7 11 14 9 9 5 2 6 2 5 2 4 7 12 16 17 19 25 13 20 21 11 10 13 13 12 13 17 18 21 24 24 21 23 23 22 19
5 3 6 14 6 4 10 7 9 9 4 5 9 3 12 16 12 6 4 2 8 15 11 22 26 24 23 13 15 17 13 15 14 16 18 20 20 20 22 24 21 20 25 24
7 6 6 6 4 6 9 9 9 9 18 14 14 8 6 6 14 15 16 15 9 4 9 20 24 28 22 25 20 16 13 18 19 18 16 17 19 19 22 23 26 26 30 33
12 10 9 6 9 7 15 18 18 5 4 7 18 11 11 12 14 11 9 9 4 5 7 10 14 17 22 27 29 27 23 19 21 22 21 20 20 23 23 26 31 34 33 31
10 13 10 5 5 6 14 18 7 7 3 9 2 11 9 18 13 3 5 10 11 6 5 12 8 11 26 25 18 30 29 29 32 28 31 27 28 32 23 24 34 36 39 39
14 9 7 7 2 11 13 15 12 3 4 5 8 11 16 8 10 9 5 5 10 3 6 6 9 9 13 31 36 29 27 33 28 34 35 33 33 32 29 23 25 31 38 35
2 8 6 11 5 6 9 8 12 12 18 6 14 20 14 16 15 5 1 5 5 9 12 16 20 19 20 20 23 25 19 22 27 32 38 37 33 32 25 20 10 5 18 25
6 13 8 4 7 11 7 7 11 20 3 5 9 8 22 15 5 9 10 8 8 13 18 22 25 27 31 27 24 25 25 24 28 31 36 39 37 32 17 5 6 18 5 9
7 10 20 14 7 9 9 7 9 12 11 1 2 7 2 4 5 2 6 14 17 17 19 19 19 25 27 29 31 30 25 29 33 36 38 43 41 27 19 12 9 13 9 4
8 15 15 18 16 9 14 8 6 9 11 16 10 7 4 9 7 9 11 13 18 19 18 22 22 26 27 27 29 34 36 30 32 31 29 31 29 23 24 20 16 15 13 11
9 8 13 15 9 7 17 13 6 6 10 13 7 10 7 17 10 3 6 10 13 16 20 24 29 35 30 24 24 29 26 31 33 32 27 29 20 18 27 26 20 22 17 12
10 6 12 15 20 21 23 21 20 19 17 19 18 22 25 21 11 6 7 13 17 23 29 33 34 31 29 28 26 26 25 26 26 26 26 27 26 21 30 28 26 26 23 18
10 8 9 11 16 19 20 22 22 21 23 21 23 24 3 7 11 13 13 15 17 25 29 29 29 32 32 27 25 24 24 22 20 22 26 26 24 29 36 34 27 30 25 25
11 15 16 18 17 20 24 24 24 22 20 25 8 6 5 8 13 18 23 29 26 22 23 28 31 31 27 24 23 23 23 21 18 21 22 24 27 21 23 39 29 26 29 29
17 19 21 25 23 24 24 24 22 24 23 15 12 9 13 17 19 23 29 33 29 25 28 30 26 29 28 20 19 19 19 17 15 14 19 20 19 15 11 10 16 19 23 26
23 23 23 25 22 8 25 23 25 25 16 14 11 13 17 19 23 30 27 26 24 21 25 28 34 31 30 20 22 19 17 17 14 12 14 10 12 9 9 12 12 15 22 22
23 18 22 18 20 25 30 22 28 20 16 14 13 14 17 19 22 25 27 27 26 26 23 27 26 30 22 21 21 20 19 19 16 15 16 13 12 14 14 18 23 22 17 17
14 18 18 16 15 8 29 28 21 16 14 17 21 20 20 23 24 23 23 27 27 33 28 28 27 24 19 22 24 23 20 17 14 11 12 15 15 16 18 14 13 12 12 14
22 20 22 25 25 27 23 15 16 13 12 17 15 15 17 19 24 28 29 28 24 20 28 30 30 22 18 21 21 14 14 13 13 10 8 6 6 7 7 9 9 9 13 15
21 23 25 23 22 13 14 14 10 13 15 14 16 20 25 30 31 30 26 27 23 25 28 29 25 24 15 22 16 15 14 12 11 8 8 9 10 10 10 15 14 12 13 13
17 17 21 19 15 19 13 13 18 15 13 17 21 25 26 28 28 26 26 26 29 32 28 28 25 31 8 18 14 15 14 11 11 9 10 11 12 12 11 11 11 12 13 14
24 21 26 26 27 24 20 19 18 21 23 25 26 27 29 30 31 28 29 30 31 32 26 28 31 28 21 17 10 12 14 11 12 11 10 11 13 11 10 11 12 13 14 15
24 24 26 29 25 22 24 22 23 22 22 25 28 30 33 33 24 25 26 30 31 32 26 24 20 20 9 14 10 10 13 13 13 12 11 11 13 12 11 12 13 13 13 15
22 22 26 31 29 29 29 29 29 30 32 34 36 37 35 26 28 28 27 30 34 33 27 22 21 19 14 13 10 13 15 14 14 15 13 14 12 13 14 14 12 9 11 11
Wind_Direction
328 13 117 95 275 65 175 286 336 336 276 65 19 282 82 147 160 24 221 208 215 208 234 244 270 327 315 293 262 267 270 265 245 240 229 225 223 220 225 227 228 227 237 241
324 336 41 6 300 269 88 297 300 12 87 179 164 74 78 160 10 187 112 189 204 221 285 236 251 274 306 326 333 277 266 269 257 250 241 227 226 229 236 238 237 238 242 248
156 49 31 255 267 215 312 318 335 335 178 218 262 33 100 256 71 63 153 200 207 250 303 210 237 270 299 285 311 316 282 268 264 243 239 231 228 225 232 234 244 248 254 260
47 48 346 342 3 313 306 346 326 319 242 255 202 154 76 122 116 138 129 146 258 275 257 217 226 289 282 288 286 299 289 311 275 257 243 245 244 250 253 246 242 248 267 261
310 301 330 332 349 343 311 320 307 306 10 332 204 140 157 127 111 108 139 154 152 33 285 254 268 282 276 277 279 302 273 296 272 259 256 246 248 247 250 252 248 249 246 257
267 252 269 339 307 311 314 318 319 304 345 219 191 147 176 156 157 186 244 262 294 251 293 289 288 277 246 267 260 261 279 283 271 258 253 235 227 226 226 237 236 238 242 249
275 272 245 243 343 320 308 346 44 66 230 211 285 193 171 189 214 213 46 13 4 7 356 264 335 291 240 232 252 275 271 272 290 262 244 271 239 251 223 268 268 244 248 249
358 332 217 217 338 335 329 333 10 282 237 317 64 143 168 163 111 109 37 17 359 342 326 330 299 320 282 248 259 305 304 253 267 258 251 261 267 260 268 313 270 259 244 243
240 275 290 193 239 303 313 352 328 295 314 100 92 104 129 140 148 170 314 304 288 280 302 304 308 319 296 286 275 293 297 268 262 256 255 264 273 284 297 322 278 325 262 264
322 290 351 244 289 308 227 12 342 348 9 344 355 121 142 161 207 281 299 286 273 279 288 296 311 320 319 308 304 296 279 266 258 251 259 266 272 281 283 303 247 253 266 251
345 305 308 310 303 5 197 253 355 335 332 274 8 346 202 268 293 206 260 284 282 285 293 303 303 315 310 303 295 289 278 270 259 257 259 264 271 270 239 246 237 227 233 241
278 300 294 297 308 275 272 277 330 306 308 318 337 350 325 48 27 296 267 272 283 290 294 301 311 324 311 297 296 282 271 269 264 265 267 267 259 254 223 247 223 224 242 250
306 262 328 320 277 10 354 335 307 273 278 286 290 293 225 332 351 355 311 301 301 304 303 304 312 318 313 316 300 288 281 274 271 262 263 269 278 275 245 249 232 228 239 247
316 331 268 280 290 309 316 316 313 319 317 313 297 297 304 304 298 287 301 301 302 301 305 310 317 326 323 324 320 304 288 280 275 266 264 266 268 270 267 249 244 237 240 249
336 323 308 289 294 298 301 300 301 295 292 282 294 294 205 277 284 288 290 287 296 309 309 309 319 325 327 323 317 309 304 292 280 267 261 269 269 270 263 267 243 227 246 252
311 287 298 285 290 299 310 298 295 298 294 288 281 129 343 317 308 301 302 305 311 309 302 302 303 310 322 316 317 316 316 312 291 272 258 267 269 270 254 251 228 224 235 253
282 292 292 295 298 302 295 298 293 293 290 287 292 280 281 293 303 303 301 300 307 305 296 296 304 304 315 311 318 323 316 318 305 276 268 275 261 290 275 187 213 224 239 250
274 275 275 281 287 263 290 302 298 298 290 260 256 258 273 279 281 285 289 300 303 290 289 293 299 297 310 300 302 306 302 295 294 293 278 272 257 236 237 238 218 257 265 256
278 263 274 271 278 286 291 289 319 290 273 276 254 258 258 258 266 281 290 293 299 308 303 304 289 294 298 301 293 293 297 294 291 272 262 263 262 259 242 238 261 260 252 239
318 254 249 253 273 271 287 291 297 267 262 267 270 267 261 270 280 288 278 280 285 291 298 303 298 295 300 307 297 292 288 287 284 280 264 264 265 254 251 244 248 244 243 240
300 302 267 266 262 269 286 283 259 262 252 252 252 253 260 274 288 295 293 291 301 290 291 299 306 292 286 303 298 284 282 283 282 271 266 270 279 255 227 219 239 259 244 238
301 301 300 286 274 289 282 273 277 282 284 289 281 283 287 289 295 299 288 292 292 290 295 298 306 290 285 292 302 295 285 279 273 247 237 257 260 266 249 247 254 249 247 252
288 304 309 302 303 299 299 290 285 278 257 267 277 282 286 291 296 289 280 284 291 303 284 286 294 308 251 279 284 285 273 279 256 245 247 259 268 270 265 252 250 254 260 265
259 270 294 301 295 296 292 283 273 273 273 273 273 275 279 284 294 279 284 278 285 305 277 280 289 292 287 266 264 275 271 261 249 245 253 268 281 276 265 264 262 262 264 262
270 276 281 290 299 296 285 275 271 272 271 274 276 278 281 290 278 276 279 282 287 301 299 284 278 292 259 254 256 266 261 255 247 248 257 271 281 273 259 252 255 260 262 262
278 280 283 296 295 292 292 290 283 280 283 285 286 291 290 275 258 260 274 287 287 289 299 275 286 273 258 242 269 260 257 258 248 250 255 265 272 268 258 251 251 261 263 264